CSN3003 ZSPD-ZGGG

Flight info

Callsign CSN3003
Flight time 2h 4m
Altitude 40100
Route NXD84D NXD W131 AKDIM A470 DUBGO W134 ELNEX A599 PLT W19 OLPAB OLPAB4
Aircraft A388/J-SADE2E3FGHIJ3J4J5M1RWXY/LB1D1

Departure

Time 2026-05-04 14:39
Airport Shanghai Pudong International Airport (ZSPD)

Arrival

Time 2026-05-04 16:43
Airport Guangzhou Baiyun International Airport (ZGGG)
Time Latitude Longitude Altitude Speed Heading
2026-05-04 13:57 31.13462 121.80262 28 ft 0 kts 72°
2026-05-04 14:18 31.13460 121.80257 28 ft 1 kts 72°
2026-05-04 14:19 31.13456 121.80242 28 ft 1 kts 72°
2026-05-04 14:19 31.13454 121.80234 28 ft 1 kts 72°
2026-05-04 14:19 31.13452 121.80227 28 ft 1 kts 72°
2026-05-04 14:19 31.13450 121.80219 28 ft 1 kts 72°
2026-05-04 14:20 31.13448 121.80212 27 ft 1 kts 71°
2026-05-04 14:20 31.13444 121.80205 27 ft 1 kts 57°
2026-05-04 14:20 31.13439 121.80199 27 ft 1 kts 44°
2026-05-04 14:21 31.13426 121.80193 28 ft 1 kts 17°
2026-05-04 14:21 31.13419 121.80191 27 ft 1 kts
2026-05-04 14:21 31.13412 121.80191 28 ft 1 kts
2026-05-04 14:21 31.13405 121.80192 28 ft 1 kts 353°
2026-05-04 14:22 31.13398 121.80194 27 ft 1 kts 345°
2026-05-04 14:22 31.13393 121.80197 26 ft 0 kts 339°
2026-05-04 14:24 31.13394 121.80196 28 ft 2 kts 339°
2026-05-04 14:24 31.13429 121.80181 28 ft 9 kts 339°
2026-05-04 14:25 31.13503 121.80154 28 ft 14 kts 340°
2026-05-04 14:25 31.13737 121.80057 28 ft 21 kts 341°
2026-05-04 14:25 31.13887 121.80000 28 ft 24 kts 342°
2026-05-04 14:26 31.14051 121.79939 28 ft 26 kts 342°
2026-05-04 14:26 31.14173 121.79921 28 ft 14 kts 43°
2026-05-04 14:26 31.14214 121.80022 28 ft 15 kts 70°
2026-05-04 14:26 31.14252 121.80150 28 ft 18 kts 72°
2026-05-04 14:27 31.14292 121.80295 28 ft 20 kts 71°
2026-05-04 14:27 31.14337 121.80451 28 ft 21 kts 72°
2026-05-04 14:27 31.14382 121.80616 28 ft 22 kts 72°
2026-05-04 14:27 31.14430 121.80787 28 ft 23 kts 71°
2026-05-04 14:28 31.14479 121.80964 28 ft 23 kts 72°
2026-05-04 14:28 31.14526 121.81142 28 ft 23 kts 73°
2026-05-04 14:28 31.14577 121.81328 28 ft 24 kts 72°
2026-05-04 14:28 31.14645 121.81422 28 ft 15 kts
2026-05-04 14:29 31.14886 121.81336 28 ft 21 kts 341°
2026-05-04 14:29 31.15192 121.81219 28 ft 25 kts 342°
2026-05-04 14:30 31.15351 121.81162 28 ft 23 kts 342°
2026-05-04 14:30 31.15503 121.81105 27 ft 21 kts 341°
2026-05-04 14:30 31.15626 121.81056 27 ft 3 kts 341°
2026-05-04 14:31 31.15646 121.81048 27 ft 0 kts 341°
2026-05-04 14:32 31.15647 121.81048 27 ft 1 kts 341°
2026-05-04 14:33 31.15678 121.81036 27 ft 8 kts 341°
2026-05-04 14:33 31.15751 121.81007 27 ft 14 kts 341°
2026-05-04 14:33 31.15834 121.81015 27 ft 12 kts 52°
2026-05-04 14:33 31.15846 121.81043 27 ft 0 kts 70°
2026-05-04 14:36 31.15852 121.81063 27 ft 6 kts 70°
2026-05-04 14:37 31.15871 121.81129 26 ft 11 kts 79°
2026-05-04 14:37 31.15843 121.81199 27 ft 10 kts 147°
2026-05-04 14:37 31.15830 121.81206 27 ft 0 kts 163°
2026-05-04 14:38 31.15829 121.81206 27 ft 1 kts 163°
2026-05-04 14:38 31.15630 121.81279 26 ft 73 kts 162°
2026-05-04 14:39 31.14895 121.81561 27 ft 142 kts 162°
2026-05-04 14:39 31.13886 121.81942 418 ft 154 kts 161°
2026-05-04 14:39 31.12884 121.82311 1037 ft 155 kts 163°
2026-05-04 14:40 31.10824 121.83111 2080 ft 168 kts 161°
2026-05-04 14:40 31.09710 121.83760 2393 ft 189 kts 153°
2026-05-04 14:40 31.08546 121.84629 2581 ft 210 kts 148°
2026-05-04 14:40 31.07254 121.85688 2917 ft 238 kts 147°
2026-05-04 14:41 31.05887 121.86831 3021 ft 258 kts 146°
2026-05-04 14:41 31.04409 121.88062 3003 ft 262 kts 147°
2026-05-04 14:41 31.01435 121.90513 3003 ft 262 kts 146°
2026-05-04 14:42 30.98687 121.93383 3261 ft 269 kts 139°
2026-05-04 14:42 30.97304 121.94855 4103 ft 269 kts 139°
2026-05-04 14:42 30.95906 121.96333 4747 ft 274 kts 139°
2026-05-04 14:43 30.94493 121.97848 4918 ft 276 kts 134°
2026-05-04 14:43 30.93519 121.99758 5159 ft 282 kts 105°
2026-05-04 14:43 30.93440 122.02033 6040 ft 279 kts 76°
2026-05-04 14:43 30.94017 122.04160 7115 ft 275 kts 68°
2026-05-04 14:44 30.94691 122.06275 7977 ft 281 kts 67°
2026-05-04 14:44 30.95375 122.08424 8845 ft 285 kts 64°
2026-05-04 14:44 30.96511 122.10286 9744 ft 284 kts 38°
2026-05-04 14:44 30.98235 122.11405 10460 ft 291 kts 15°
2026-05-04 14:45 31.00310 122.11625 10718 ft 311 kts 351°
2026-05-04 14:45 31.02474 122.10969 10977 ft 330 kts 340°
2026-05-04 14:45 31.04658 122.10051 11629 ft 336 kts 339°
2026-05-04 14:45 31.06871 122.09119 12355 ft 340 kts 339°
2026-05-04 14:46 31.09127 122.08215 13070 ft 346 kts 340°
2026-05-04 14:46 31.11430 122.07329 13772 ft 351 kts 340°
2026-05-04 14:46 31.13768 122.06449 14423 ft 355 kts 340°
2026-05-04 14:46 31.16090 122.05584 15092 ft 358 kts 340°
2026-05-04 14:47 31.18519 122.04679 15763 ft 362 kts 340°
2026-05-04 14:47 31.20931 122.03780 16413 ft 365 kts 339°
2026-05-04 14:47 31.23364 122.02871 17053 ft 369 kts 339°
2026-05-04 14:47 31.25821 122.01953 17693 ft 373 kts 339°
2026-05-04 14:48 31.28300 122.01025 18306 ft 376 kts 338°
2026-05-04 14:48 31.30794 122.00092 18872 ft 379 kts 338°
2026-05-04 14:48 31.33206 121.98882 19424 ft 375 kts 324°
2026-05-04 14:48 31.35181 121.96953 19981 ft 370 kts 308°
2026-05-04 14:49 31.36605 121.94481 20563 ft 366 kts 293°
2026-05-04 14:49 31.37389 121.91698 21117 ft 365 kts 278°
2026-05-04 14:49 31.37498 121.88690 21691 ft 366 kts 264°
2026-05-04 14:49 31.37023 121.85762 22223 ft 369 kts 259°
2026-05-04 14:50 31.36504 121.82821 22743 ft 371 kts 260°
2026-05-04 14:50 31.36026 121.79839 23288 ft 373 kts 261°
2026-05-04 14:50 31.35562 121.76854 23795 ft 375 kts 261°
2026-05-04 14:50 31.35091 121.73846 24277 ft 376 kts 261°
2026-05-04 14:51 31.34617 121.70857 24781 ft 376 kts 260°
2026-05-04 14:51 31.34149 121.67933 25262 ft 377 kts 260°
2026-05-04 14:51 31.33663 121.64912 25759 ft 378 kts 260°
2026-05-04 14:51 31.33175 121.61890 26298 ft 379 kts 260°
2026-05-04 14:52 31.32693 121.58910 26838 ft 380 kts 260°
2026-05-04 14:52 31.32520 121.57842 27040 ft 381 kts 260°
2026-05-04 14:52 31.32137 121.55476 27494 ft 382 kts 260°
2026-05-04 14:53 31.31802 121.53412 27883 ft 383 kts 260°
2026-05-04 14:53 31.31308 121.50374 28449 ft 385 kts 260°
2026-05-04 14:53 31.30804 121.47272 29031 ft 386 kts 260°
2026-05-04 14:53 31.30303 121.44198 29618 ft 388 kts 260°
2026-05-04 14:54 31.29797 121.41095 30183 ft 391 kts 259°
2026-05-04 14:54 31.29244 121.37980 30665 ft 393 kts 255°
2026-05-04 14:54 31.28270 121.34976 31148 ft 398 kts 246°
2026-05-04 14:54 31.26818 121.32200 31622 ft 405 kts 237°
2026-05-04 14:55 31.25081 121.29911 32069 ft 413 kts 229°
2026-05-04 14:55 31.22855 121.27745 32538 ft 418 kts 225°
2026-05-04 14:55 31.20660 121.25660 32989 ft 420 kts 225°
2026-05-04 14:55 31.18391 121.23481 33474 ft 422 kts 226°
2026-05-04 14:56 31.16137 121.21312 33946 ft 424 kts 226°
2026-05-04 14:56 31.13834 121.19100 34382 ft 426 kts 226°
2026-05-04 14:56 31.11546 121.16907 34799 ft 427 kts 226°
2026-05-04 14:56 31.09421 121.14510 35300 ft 420 kts 234°
2026-05-04 14:57 31.07677 121.11816 35865 ft 413 kts 242°
2026-05-04 14:57 31.06327 121.08934 36391 ft 408 kts 249°
2026-05-04 14:57 31.05342 121.05856 36914 ft 405 kts 255°
2026-05-04 14:57 31.04578 121.02653 37421 ft 404 kts 255°
2026-05-04 14:58 31.03808 120.99512 37933 ft 403 kts 255°
2026-05-04 14:58 31.03038 120.96412 38441 ft 402 kts 255°
2026-05-04 14:58 31.02250 120.93250 38917 ft 401 kts 255°
2026-05-04 14:58 31.01471 120.90121 39287 ft 401 kts 255°
2026-05-04 14:59 31.00695 120.87004 39621 ft 402 kts 255°
2026-05-04 14:59 30.99918 120.83883 39963 ft 402 kts 255°
2026-05-04 14:59 30.98345 120.77568 40177 ft 405 kts 255°
2026-05-04 15:00 30.97558 120.74418 40179 ft 405 kts 255°
2026-05-04 15:00 30.95980 120.68108 40179 ft 406 kts 255°
2026-05-04 15:01 30.93607 120.58647 40178 ft 405 kts 255°
2026-05-04 15:01 30.92023 120.52349 40174 ft 405 kts 255°
2026-05-04 15:02 30.89836 120.46295 40166 ft 409 kts 244°
2026-05-04 15:02 30.86439 120.40982 40156 ft 417 kts 232°
2026-05-04 15:03 30.81885 120.36597 40159 ft 427 kts 222°
2026-05-04 15:03 30.77058 120.32639 40162 ft 427 kts 223°
2026-05-04 15:04 30.72233 120.28657 40157 ft 427 kts 223°
2026-05-04 15:04 30.67360 120.24652 40152 ft 428 kts 223°
2026-05-04 15:05 30.62503 120.20669 40164 ft 428 kts 223°
2026-05-04 15:05 30.57624 120.16674 40177 ft 429 kts 223°
2026-05-04 15:06 30.52922 120.12830 40172 ft 429 kts 223°
2026-05-04 15:07 30.45599 120.06850 40177 ft 429 kts 223°
2026-05-04 15:07 30.40520 120.03142 40183 ft 434 kts 218°
2026-05-04 15:08 30.35278 119.99669 40185 ft 434 kts 218°
2026-05-04 15:08 30.30046 119.96185 40182 ft 434 kts 218°
2026-05-04 15:09 30.24822 119.92709 40187 ft 433 kts 218°
2026-05-04 15:09 30.19590 119.89232 40190 ft 433 kts 218°
2026-05-04 15:10 30.11759 119.84037 40192 ft 433 kts 218°
2026-05-04 15:11 30.03909 119.78837 40200 ft 433 kts 219°
2026-05-04 15:11 29.98712 119.75343 40197 ft 433 kts 219°
2026-05-04 15:12 29.93513 119.71838 40198 ft 432 kts 219°
2026-05-04 15:12 29.88322 119.68351 40194 ft 432 kts 219°
2026-05-04 15:13 29.83244 119.64712 40201 ft 427 kts 223°
2026-05-04 15:13 29.78342 119.60854 40204 ft 427 kts 223°
2026-05-04 15:14 29.73420 119.57004 40200 ft 427 kts 223°
2026-05-04 15:14 29.68509 119.53170 40195 ft 427 kts 223°
2026-05-04 15:15 29.63773 119.49137 40199 ft 420 kts 228°
2026-05-04 15:15 29.59599 119.44508 40201 ft 414 kts 234°
2026-05-04 15:16 29.53834 119.37115 40212 ft 414 kts 234°
2026-05-04 15:17 29.48038 119.29737 40213 ft 415 kts 234°
2026-05-04 15:17 29.42236 119.22364 40213 ft 415 kts 234°
2026-05-04 15:18 29.38361 119.17448 40209 ft 415 kts 234°
2026-05-04 15:19 29.32548 119.10086 40201 ft 415 kts 234°
2026-05-04 15:19 29.26749 119.02772 40204 ft 415 kts 234°
2026-05-04 15:20 29.22871 118.97887 40204 ft 415 kts 234°
2026-05-04 15:20 29.18984 118.93000 40209 ft 415 kts 234°
2026-05-04 15:21 29.15096 118.88118 40210 ft 415 kts 234°
2026-05-04 15:22 29.09259 118.80801 40222 ft 415 kts 234°
2026-05-04 15:22 29.03419 118.73494 40211 ft 415 kts 234°
2026-05-04 15:23 28.99525 118.68626 40208 ft 415 kts 234°
2026-05-04 15:23 28.95626 118.63760 40206 ft 415 kts 234°
2026-05-04 15:24 28.87825 118.54041 40200 ft 415 kts 234°
2026-05-04 15:25 28.83922 118.49187 40199 ft 416 kts 234°
2026-05-04 15:26 28.78048 118.41899 40199 ft 416 kts 234°
2026-05-04 15:26 28.72172 118.34613 40199 ft 416 kts 234°
2026-05-04 15:27 28.66294 118.27338 40198 ft 416 kts 234°
2026-05-04 15:28 28.60407 118.20068 40200 ft 416 kts 234°
2026-05-04 15:29 28.54517 118.12806 40197 ft 417 kts 234°
2026-05-04 15:30 28.40761 117.95898 40195 ft 417 kts 233°
2026-05-04 15:31 28.34711 117.88766 40193 ft 418 kts 233°
2026-05-04 15:32 28.24616 117.76880 40198 ft 418 kts 233°
2026-05-04 15:34 28.14503 117.64987 40198 ft 419 kts 233°
2026-05-04 15:34 28.08420 117.57849 40199 ft 420 kts 233°
2026-05-04 15:35 28.02325 117.50713 40202 ft 419 kts 233°
2026-05-04 15:36 27.96241 117.43598 40194 ft 420 kts 233°
2026-05-04 15:36 27.92176 117.38846 40200 ft 421 kts 233°
2026-05-04 15:37 27.88105 117.34095 40202 ft 421 kts 233°
2026-05-04 15:37 27.84714 117.30142 40201 ft 421 kts 233°
2026-05-04 15:38 27.80625 117.25384 40207 ft 423 kts 233°
2026-05-04 15:38 27.76522 117.20614 40196 ft 423 kts 233°
2026-05-04 15:39 27.72435 117.15871 40185 ft 422 kts 233°
2026-05-04 15:40 27.66298 117.08752 40205 ft 423 kts 233°
2026-05-04 15:40 27.62182 117.03982 40208 ft 425 kts 232°
2026-05-04 15:41 27.58051 116.99203 40216 ft 426 kts 232°
2026-05-04 15:41 27.53904 116.94410 40211 ft 427 kts 232°
2026-05-04 15:42 27.49755 116.89608 40212 ft 427 kts 233°
2026-05-04 15:42 27.45643 116.84782 40223 ft 427 kts 233°
2026-05-04 15:43 27.41529 116.79961 40217 ft 426 kts 233°
2026-05-04 15:43 27.37417 116.75156 40208 ft 426 kts 233°
2026-05-04 15:44 27.33302 116.70355 40186 ft 426 kts 233°
2026-05-04 15:44 27.29194 116.65567 40179 ft 426 kts 233°
2026-05-04 15:45 27.25076 116.60775 40189 ft 426 kts 233°
2026-05-04 15:45 27.20956 116.55983 40188 ft 426 kts 233°
2026-05-04 15:46 27.16912 116.51140 40189 ft 425 kts 234°
2026-05-04 15:46 27.12941 116.46290 40183 ft 425 kts 234°
2026-05-04 15:47 27.08926 116.41417 40183 ft 426 kts 234°
2026-05-04 15:47 27.04896 116.36546 40185 ft 426 kts 233°
2026-05-04 15:48 27.00855 116.31670 40185 ft 427 kts 233°
2026-05-04 15:48 26.94779 116.24347 40193 ft 428 kts 233°
2026-05-04 15:49 26.90718 116.19454 40197 ft 429 kts 234°
2026-05-04 15:49 26.86683 116.14534 40195 ft 429 kts 234°
2026-05-04 15:50 26.82640 116.09605 40191 ft 430 kts 234°
2026-05-04 15:50 26.78587 116.04676 40209 ft 430 kts 234°
2026-05-04 15:51 26.74531 115.99751 40191 ft 430 kts 234°
2026-05-04 15:51 26.70474 115.94831 40188 ft 430 kts 234°
2026-05-04 15:52 26.66411 115.89909 40196 ft 431 kts 234°
2026-05-04 15:52 26.62345 115.84990 40202 ft 431 kts 233°
2026-05-04 15:53 26.58272 115.80068 40202 ft 431 kts 233°
2026-05-04 15:53 26.54223 115.75180 40191 ft 431 kts 233°
2026-05-04 15:54 26.50153 115.70269 40192 ft 431 kts 233°
2026-05-04 15:54 26.46080 115.65364 40182 ft 431 kts 233°
2026-05-04 15:55 26.42003 115.60460 40185 ft 431 kts 234°
2026-05-04 15:55 26.37922 115.55555 40177 ft 432 kts 233°
2026-05-04 15:56 26.33831 115.50643 40176 ft 432 kts 233°
2026-05-04 15:56 26.29738 115.45734 40175 ft 432 kts 233°
2026-05-04 15:57 26.25640 115.40826 40177 ft 433 kts 233°
2026-05-04 15:57 26.21531 115.35910 40175 ft 433 kts 233°
2026-05-04 15:58 26.17421 115.30997 40172 ft 434 kts 233°
2026-05-04 15:58 26.13308 115.26087 40171 ft 434 kts 233°
2026-05-04 15:59 26.09184 115.21170 40174 ft 434 kts 233°
2026-05-04 15:59 26.05061 115.16258 40176 ft 435 kts 233°
2026-05-04 16:00 26.00928 115.11340 40174 ft 435 kts 233°
2026-05-04 16:00 25.96799 115.06432 40170 ft 434 kts 233°
2026-05-04 16:01 25.92673 115.01535 40172 ft 434 kts 233°
2026-05-04 16:01 25.88572 114.96668 40173 ft 435 kts 233°
2026-05-04 16:02 25.84317 114.91850 40172 ft 441 kts 227°
2026-05-04 16:02 25.79150 114.88004 40174 ft 456 kts 214°
2026-05-04 16:03 25.76221 114.86584 40175 ft 464 kts 208°
2026-05-04 16:03 25.69870 114.84780 40173 ft 474 kts 201°
2026-05-04 16:04 25.63431 114.83185 40185 ft 474 kts 201°
2026-05-04 16:04 25.53775 114.80782 40181 ft 474 kts 201°
2026-05-04 16:05 25.47339 114.79188 40179 ft 474 kts 201°
2026-05-04 16:06 25.37701 114.76805 40179 ft 473 kts 201°
2026-05-04 16:07 25.24844 114.73631 40172 ft 473 kts 201°
2026-05-04 16:08 25.12004 114.70468 40178 ft 473 kts 201°
2026-05-04 16:09 24.95937 114.66520 40178 ft 474 kts 201°
2026-05-04 16:10 24.83069 114.63364 40174 ft 474 kts 201°
2026-05-04 16:11 24.70385 114.59727 40181 ft 464 kts 209°
2026-05-04 16:12 24.61890 114.55036 39793 ft 447 kts 218°
2026-05-04 16:12 24.53857 114.49937 39116 ft 448 kts 217°
2026-05-04 16:13 24.48444 114.46524 38638 ft 449 kts 217°
2026-05-04 16:13 24.43036 114.43120 38105 ft 447 kts 217°
2026-05-04 16:14 24.37636 114.39724 37570 ft 448 kts 217°
2026-05-04 16:14 24.32208 114.36324 37056 ft 449 kts 217°
2026-05-04 16:15 24.24071 114.31228 36307 ft 449 kts 217°
2026-05-04 16:16 24.18640 114.27831 35831 ft 449 kts 216°
2026-05-04 16:16 24.10660 114.22525 35119 ft 442 kts 225°
2026-05-04 16:17 24.06600 114.17621 34663 ft 432 kts 240°
2026-05-04 16:18 24.02366 114.09015 33466 ft 426 kts 244°
2026-05-04 16:18 24.00976 114.06148 32681 ft 426 kts 244°
2026-05-04 16:19 23.96935 113.97823 31297 ft 403 kts 244°
2026-05-04 16:19 23.94345 113.92481 30267 ft 393 kts 244°
2026-05-04 16:20 23.90600 113.84777 28719 ft 376 kts 244°
2026-05-04 16:20 23.88183 113.79811 27758 ft 364 kts 244°
2026-05-04 16:21 23.84680 113.72613 26292 ft 353 kts 244°
2026-05-04 16:22 23.82387 113.67906 25349 ft 349 kts 244°
2026-05-04 16:22 23.78129 113.61458 23740 ft 359 kts 225°
2026-05-04 16:23 23.71599 113.56779 22323 ft 382 kts 217°
2026-05-04 16:24 23.62820 113.50813 20231 ft 361 kts 217°
2026-05-04 16:25 23.58345 113.48306 19015 ft 367 kts 205°
2026-05-04 16:26 23.49255 113.45744 16971 ft 366 kts 199°
2026-05-04 16:26 23.42013 113.43774 15669 ft 351 kts 199°
2026-05-04 16:27 23.37469 113.42549 15384 ft 322 kts 200°
2026-05-04 16:28 23.31323 113.40888 15100 ft 285 kts 200°
2026-05-04 16:28 23.25862 113.39409 14872 ft 254 kts 201°
2026-05-04 16:29 23.19231 113.37606 14097 ft 239 kts 201°
2026-05-04 16:30 23.14421 113.36302 13247 ft 237 kts 201°
2026-05-04 16:31 23.11228 113.35439 12674 ft 236 kts 201°
2026-05-04 16:31 23.06467 113.34154 11842 ft 234 kts 200°
2026-05-04 16:32 23.01757 113.32883 10710 ft 233 kts 199°
2026-05-04 16:33 22.98617 113.32037 9910 ft 232 kts 199°
2026-05-04 16:33 22.95712 113.30822 9004 ft 221 kts 230°
2026-05-04 16:34 22.95150 113.27771 8039 ft 221 kts 290°
2026-05-04 16:34 22.96040 113.26354 7292 ft 239 kts 315°
2026-05-04 16:35 23.00854 113.24868 6308 ft 232 kts 347°
2026-05-04 16:35 23.05567 113.23924 5212 ft 227 kts 347°
2026-05-04 16:36 23.07111 113.23580 4884 ft 224 kts 347°
2026-05-04 16:36 23.10150 113.23556 3795 ft 215 kts 10°
2026-05-04 16:37 23.13017 113.24297 2304 ft 210 kts 15°
2026-05-04 16:37 23.14422 113.24674 2042 ft 207 kts 15°
2026-05-04 16:37 23.17223 113.25433 1976 ft 208 kts 15°
2026-05-04 16:38 23.20010 113.26186 1976 ft 208 kts 15°
2026-05-04 16:39 23.23988 113.27261 1980 ft 181 kts 15°
2026-05-04 16:39 23.26308 113.27888 1978 ft 161 kts 16°
2026-05-04 16:40 23.28457 113.28471 1773 ft 159 kts 15°
2026-05-04 16:40 23.30454 113.29011 1369 ft 141 kts 15°
2026-05-04 16:41 23.32291 113.29508 1012 ft 135 kts 14°
2026-05-04 16:41 23.34219 113.30032 637 ft 136 kts 15°
2026-05-04 16:42 23.37003 113.30783 97 ft 138 kts 16°
2026-05-04 16:43 23.38407 113.31166 56 ft 71 kts 14°
2026-05-04 16:43 23.39102 113.31352 52 ft 28 kts 14°
2026-05-04 16:43 23.39286 113.31398 53 ft 26 kts
2026-05-04 16:44 23.39757 113.31235 56 ft 14 kts 284°
2026-05-04 16:45 23.39823 113.30977 59 ft 15 kts 310°
2026-05-04 16:46 23.40012 113.30852 59 ft 16 kts 276°
2026-05-04 16:46 23.39968 113.30645 58 ft 17 kts 285°
2026-05-04 16:47 23.40060 113.30531 57 ft 0 kts 321°
2026-05-04 16:47 23.40066 113.30525 58 ft 0 kts 321°